Location: Holiday Acres Laynes 2 Mobile Home Park
(26.7249°N, 81.8671°W)
Time: 12:44:04
(UTC+00:00)

SAR-Lupe-1 - Visible Passes

Search period start: 12 April 2021 00:00
Search period end: 22 April 2021 00:00
Orbit: 482 x 483 km, 98.2° (Epoch: 30 March)

Date Brightness Start Highest point End Pass type
(mag) Time Alt. Az. Time Alt. Az. Time Alt. Az.
12 Apr 4.1 00:12:57 10° NNE 00:16:27 53° ESE 00:19:56 10° S visible
13 Apr 7.5 01:22:45 10° NW 01:24:35 14° WNW 01:26:26 10° WSW visible
14 Apr 6.2 00:56:42 10° NNW 00:59:51 30° WNW 01:03:01 10° SW visible
15 Apr 4.2 00:31:29 10° N 00:35:03 78° WNW 00:38:36 10° SSW visible
17 Apr 7.2 01:15:55 10° NNW 01:18:21 17° WNW 01:20:47 10° WSW visible
18 Apr 5.6 00:50:13 10° N 00:53:35 40° WNW 00:56:56 10° SW visible
19 Apr 4.0 00:25:11 10° NNE 00:28:45 77° E 00:32:18 10° S visible
21 Apr 6.8 01:09:14 10° NNW 01:12:05 22° WNW 01:14:54 10° SW visible
